Regional Weather Roundup
Issued by NWS

Home | Current Version | Previous Version | Graphics & Text | Print | Product List | Glossary On
Versions: 1 2 3 4 5 6 7 8 9 10 11 12 13 14 15 16 17 18 19 20 21 22 23 24 25 26 27 28 29 30 31 32 33 34 35 36 37 38 39 40 41 42 43 44 45 46 47 48 49 50
000
ASUS43 KBIS 271301
RWRND

NORTH DAKOTA REGIONAL WEATHER ROUNDUP
NATIONAL WEATHER SERVICE BISMARCK ND
700 AM CST FRI FEB 27 2015

NOTE: "FAIR" INDICATES FEW OR NO CLOUDS BELOW 12,000 FEET WITH NO
SIGNIFICANT WEATHER AND/OR OBSTRUCTIONS TO VISIBILITY.


NDZ001>003-009>011-017-271400-
NORTHWEST NORTH DAKOTA

CITY           SKY/WX    TMP DP  RH WIND       PRES   REMARKS
WILLISTON      MOCLDY   -11 -15  82 CALM      30.29F
MINOT          MOCLDY    -7 -13  75 SW13      30.34F WCI -27
MINOT AFB      MOCLDY   -13 -17  82 S6        30.34F WCI -27
$$

NDZ018>021-031>035-040>046-271400-
SOUTHWEST NORTH DAKOTA

CITY           SKY/WX    TMP DP  RH WIND       PRES   REMARKS
BISMARCK       PTCLDY   -13 -18  78 E5        30.42S WCI -25
DICKINSON      CLEAR     -6 -12  75 S10       30.24F WCI -24
GARRISON         N/A    -14 -19  79 CALM      30.35F
HETTINGER ARPT CLEAR     -5 -11  75 SE7       30.27F WCI -19
$$

NDZ004>008-012>016-024-026-027-054-271400-
NORTHEAST NORTH DAKOTA

CITY           SKY/WX    TMP DP  RH WIND       PRES   REMARKS
GRAND FORKS    PTCLDY   -16 -21  78 S5        30.44F WCI -29
GRND FRKS AFB  PTCLDY   -12 -19  71 W6        30.43F WCI -26
DEVILS LAKE    PTCLDY   N/A N/A N/A MISG        N/A
$$

NDZ022-023-025-028>030-036>039-047>053-271400-
SOUTHEAST NORTH DAKOTA

CITY           SKY/WX    TMP DP  RH WIND       PRES   REMARKS
FARGO          CLEAR    -11 -17  75 SW6       30.49S WCI -25
JAMESTOWN      MOCLDY   -13 -19  75 W7        30.42R WCI -29
$$



USA.gov is the U.S. government's official web portal to all federal, state and local government web resources and services.